Probability
0 0 0 0 0 0 0 0 1 2 4 5 6 6 9 14 17 20 23 26 28 27 23 17 14 12 12 11 12 14 17 19 20 21 21 22 23 23 22 22 21 20 19 19
0 0 0 0 0 0 0 0 1 3 4 5 6 6 9 14 16 19 24 28 31 31 26 19 15 14 15 14 15 18 19 20 20 21 21 21 21 21 21 21 20 19 18 17
0 0 0 0 0 0 0 0 2 3 4 5 6 6 8 11 14 17 22 30 34 32 26 20 15 15 16 17 18 20 22 21 21 21 21 20 20 20 20 20 19 18 17 16
0 0 0 0 0 0 0 1 2 3 4 6 7 7 7 10 14 16 21 30 34 30 23 17 14 14 16 18 18 19 21 22 21 20 21 21 21 21 21 20 19 17 17 17
0 0 0 1 2 1 1 2 4 5 7 8 9 9 11 15 18 19 24 30 31 26 20 15 14 16 18 19 18 19 23 25 23 22 22 22 23 22 20 20 18 16 15 15
1 1 1 2 3 2 2 5 8 9 10 12 12 13 17 22 23 24 28 29 26 22 18 16 17 20 21 20 19 21 25 28 27 26 23 21 21 21 20 19 16 13 11 10
2 2 2 3 4 4 6 10 13 14 15 15 17 18 21 24 24 25 27 25 21 19 18 19 19 21 22 21 19 19 21 24 25 25 23 21 21 22 21 17 13 11 9 8
4 4 5 5 6 8 13 15 17 18 18 19 20 21 21 22 22 24 23 20 19 18 17 18 20 22 24 23 19 16 16 16 17 18 19 19 20 21 19 16 12 10 10 10
7 9 10 9 10 12 15 18 18 18 19 20 20 19 19 17 17 18 18 17 17 17 16 16 19 23 26 26 21 17 14 12 11 12 14 16 17 17 16 13 11 9 9 10
12 13 13 12 12 12 14 16 15 14 16 18 18 17 16 13 11 12 13 14 15 15 15 16 18 22 25 25 22 18 15 12 9 9 11 13 15 14 12 10 8 8 8 9
11 13 14 12 11 11 12 13 12 11 12 13 13 15 15 12 9 9 10 12 13 13 14 16 18 20 21 21 19 18 16 11 8 8 10 12 13 12 10 8 7 7 8 7
8 11 12 12 11 10 10 11 12 12 12 11 11 12 13 12 10 10 12 14 14 12 13 16 17 17 18 17 16 16 14 11 9 9 9 10 10 10 9 7 5 5 5 5
6 8 11 12 11 9 10 11 12 12 12 12 12 12 11 12 13 13 14 16 15 12 12 14 15 15 15 15 15 14 12 10 10 10 9 8 8 9 9 7 4 3 2 2
5 7 10 11 11 10 9 11 12 12 13 14 15 14 13 14 16 16 16 15 13 11 11 12 12 13 14 15 15 14 12 10 10 9 8 7 7 8 10 9 7 6 4 2
3 5 8 10 10 10 10 11 12 14 14 16 17 17 16 17 19 19 16 14 12 10 10 11 11 12 14 15 15 13 11 9 7 6 7 7 7 7 8 9 10 9 8 5
1 3 6 8 8 8 8 9 11 13 14 15 16 16 16 17 19 18 15 12 11 10 11 11 11 12 12 13 13 11 9 7 4 4 5 6 6 6 7 9 10 10 9 9
1 3 6 8 7 5 4 5 8 11 12 13 15 15 14 14 17 17 14 11 10 11 11 12 12 12 11 9 8 7 6 4 2 2 3 4 6 7 8 9 10 10 10 10
2 3 5 6 6 4 3 4 7 10 12 14 15 14 13 13 16 18 17 14 11 10 10 10 10 10 8 5 4 4 4 3 2 2 3 4 5 7 9 10 10 10 10 10
3 3 3 2 3 4 4 6 7 8 10 12 13 12 12 13 14 17 18 16 13 11 11 11 10 9 7 4 3 5 6 4 3 4 5 5 6 6 8 10 11 10 10 10
3 2 1 0 1 2 4 7 8 6 6 7 9 10 11 11 12 13 14 14 13 13 14 13 12 11 10 7 5 8 9 8 7 7 7 7 6 6 8 9 10 10 10 10
3 2 0 1 2 2 3 7 8 5 4 4 6 8 9 9 10 11 12 13 12 12 12 11 11 12 13 11 9 10 13 12 10 9 9 8 7 7 8 9 10 10 10 11
2 2 1 1 2 3 4 7 8 5 3 3 5 7 8 8 9 10 11 11 10 8 8 9 10 10 10 11 11 12 13 12 11 11 11 9 8 8 9 10 11 11 11 12
2 2 2 2 4 4 6 7 6 4 3 3 5 7 8 8 9 9 8 8 6 6 7 9 9 7 7 9 12 13 12 11 11 12 11 10 9 10 11 12 12 12 12 12
2 3 4 4 5 6 6 6 6 4 3 3 4 5 7 9 10 10 8 5 4 4 6 7 5 4 5 9 12 12 12 11 11 11 10 9 9 11 12 12 12 12 12 12
4 5 6 5 5 6 6 5 5 5 5 3 2 4 6 9 10 11 10 6 4 4 6 6 4 3 5 8 10 10 10 9 9 9 8 7 7 9 9 10 10 10 10 9
5 6 7 6 6 6 5 4 4 5 5 4 3 4 7 9 9 10 10 8 5 4 6 6 5 4 4 5 6 7 6 5 5 5 5 5 5 6 6 6 8 8 6 5
5 6 7 7 6 6 5 3 4 5 6 5 4 4 7 9 9 9 10 8 5 4 5 6 5 4 3 4 4 4 4 4 3 4 4 4 4 4 4 5 6 5 3 2
Wind_Speed
9 6 7 9 9 10 12 11 11 8 7 5 2 2 1 1 1 1 2 2 2 3 3 4 4 5 5 5 5 5 5 6 5 5 5 5 4 4 4 4 4 3 3 3
8 7 8 10 10 11 10 10 10 8 7 2 1 0 0 1 1 1 1 1 1 2 3 4 5 5 5 5 5 6 6 6 5 5 5 5 5 4 4 4 3 3 4 3
9 7 9 11 10 10 9 8 8 8 4 1 1 1 1 1 2 2 1 1 1 1 2 3 4 4 5 5 5 5 5 5 5 5 5 5 5 4 4 4 4 4 4 4
8 8 13 3 0 5 7 6 6 4 3 2 2 2 1 1 1 1 1 1 1 1 1 1 2 3 4 5 5 5 5 5 5 5 5 5 4 4 4 4 3 3 3 4
8 11 10 6 4 5 6 6 3 4 3 1 1 3 2 1 1 0 0 1 1 2 1 1 1 2 3 4 4 5 5 5 5 5 4 4 4 4 4 3 3 3 3 3
9 12 12 4 3 2 6 7 2 3 2 2 3 5 1 2 1 1 1 1 0 0 0 1 1 1 2 3 3 4 3 3 3 4 4 4 4 4 3 3 3 3 3 3
12 12 8 2 1 4 9 2 1 1 2 3 3 4 3 1 1 1 1 1 1 1 1 1 0 1 2 2 2 2 1 2 2 3 3 3 3 3 3 4 3 3 3 3
10 12 6 4 1 3 3 4 2 2 2 2 2 1 1 1 1 1 1 1 1 1 2 2 1 1 2 1 1 1 1 2 2 2 3 2 3 3 3 3 3 3 3 3
5 3 3 2 2 3 3 2 2 3 2 2 2 2 2 2 1 1 2 1 1 1 2 2 1 0 1 1 1 1 1 1 2 2 2 2 3 3 4 4 3 3 3 3
5 3 1 1 2 2 3 3 4 3 3 2 2 2 2 2 1 1 1 2 2 1 1 2 2 1 1 0 0 1 1 1 2 2 2 2 2 3 3 3 3 3 3 3
6 3 2 2 1 2 3 3 3 3 3 3 3 3 3 2 2 2 1 2 2 2 2 2 1 1 1 0 1 1 1 2 2 2 2 2 2 1 2 1 2 3 2 2
4 3 4 4 4 5 4 4 4 3 3 3 3 3 3 3 2 2 2 2 3 3 2 2 1 1 1 0 1 1 2 2 2 2 2 2 2 2 1 1 1 1 2 4
6 6 6 5 5 5 5 4 4 4 4 4 4 3 3 3 3 3 3 3 4 3 3 2 1 1 2 1 1 2 2 2 2 2 2 2 2 2 2 3 4 3 4 4
5 5 4 4 5 5 4 4 4 3 3 3 3 3 3 3 3 3 3 4 4 4 3 3 2 2 2 2 2 3 3 2 3 3 3 3 3 3 3 2 2 2 4 5
4 5 5 4 4 4 4 3 3 3 3 3 2 2 3 3 3 4 4 4 4 4 3 3 2 2 2 2 3 3 3 2 2 3 3 3 3 3 3 3 3 2 1 3
5 4 4 3 3 3 3 3 4 4 4 3 3 3 3 3 3 4 3 3 4 4 3 3 3 3 2 3 3 3 2 2 3 3 3 3 3 3 3 3 3 2 2 2
4 4 3 3 3 4 4 4 4 4 4 4 3 3 3 4 4 3 3 3 3 3 3 4 3 2 2 3 4 3 2 2 4 4 4 3 3 3 3 3 3 3 3 1
4 4 4 4 4 4 5 5 5 5 4 4 3 3 3 4 4 4 3 3 3 3 3 3 2 2 3 4 4 3 3 3 3 3 2 2 2 3 3 4 4 4 3 2
3 3 4 4 4 5 5 5 5 5 4 4 4 3 4 4 3 3 3 3 3 3 2 1 2 4 4 3 3 4 4 4 3 3 3 3 3 3 3 4 4 4 3 3
3 3 4 4 5 5 5 5 5 4 4 4 4 4 4 3 3 3 3 3 2 2 2 1 3 4 4 3 3 4 3 4 3 3 3 3 3 3 4 4 4 3 3 3
3 3 4 4 5 5 4 4 4 4 4 4 3 3 4 4 3 3 3 2 1 2 2 2 3 3 2 2 4 4 3 4 4 4 3 3 4 4 4 4 4 3 3 3
3 3 4 4 4 4 4 3 3 4 4 4 4 3 3 3 3 3 2 2 2 2 2 2 2 2 3 4 4 3 4 4 4 3 3 4 4 4 4 4 4 3 3 2
4 4 4 4 4 4 4 4 4 3 3 3 3 4 4 4 4 3 2 1 2 2 3 1 2 2 4 4 3 3 3 3 3 3 3 3 4 4 4 4 3 3 2 2
4 4 4 4 4 3 3 3 3 3 3 2 3 3 4 3 3 2 2 1 1 3 3 2 1 2 5 3 2 2 2 2 2 2 2 3 3 3 3 3 2 2 1 1
3 3 3 3 3 2 2 2 2 2 2 2 2 2 3 3 3 3 3 2 2 2 1 0 2 3 4 2 1 2 1 1 1 2 2 2 2 2 2 1 1 1 0 0
3 3 2 2 2 2 2 2 2 2 2 2 2 2 2 2 2 1 1 1 2 1 2 1 0 2 2 1 1 2 2 1 1 1 2 2 2 2 2 1 0 0 0 0
3 2 2 1 1 1 2 2 2 2 2 2 2 2 2 2 2 1 2 1 1 1 1 1 1 1 1 1 1 2 2 2 2 2 2 2 2 2 1 1 1 1 1 1
Wind_Direction
269 275 251 240 233 226 238 255 265 266 267 276 318 314 318 275 221 177 179 184 185 195 198 202 205 200 200 200 198 195 199 208 206 209 206 212 214 213 212 215 211 209 219 223
242 243 242 241 239 237 241 252 258 261 268 310 17 338 184 192 206 194 213 200 195 200 206 213 211 204 201 204 202 198 201 205 203 208 204 208 212 212 208 207 209 213 221 227
242 230 237 235 237 236 237 244 251 255 271 235 233 230 210 211 218 209 201 200 223 248 233 224 218 208 208 206 205 203 203 202 203 207 205 206 215 209 209 208 205 213 222 231
246 232 237 243 225 253 244 246 258 271 277 263 261 229 196 205 237 211 213 212 215 253 250 237 222 210 216 210 202 204 204 203 204 207 209 203 209 211 212 216 213 217 223 226
243 240 238 222 201 228 239 242 249 252 252 244 235 205 173 71 41 353 198 206 228 239 225 204 201 196 201 208 199 201 205 205 207 207 207 203 207 207 208 211 214 221 221 224
241 248 247 231 135 226 245 233 222 240 239 239 244 242 148 57 47 49 38 17 37 133 132 111 127 162 190 203 198 205 210 209 205 206 208 204 205 205 200 207 218 230 224 230
241 246 248 44 141 216 237 269 70 262 259 246 264 316 15 30 64 56 37 42 66 54 34 39 115 160 188 205 208 209 205 207 208 215 214 211 209 204 206 214 214 230 231 232
238 243 234 61 199 253 352 21 360 323 295 286 310 339 357 348 9 5 7 45 61 55 24 23 59 165 186 198 199 203 203 200 200 209 232 208 202 204 212 222 213 217 228 242
265 277 21 27 346 1 348 340 338 323 326 309 301 324 343 326 320 358 347 351 353 34 31 20 16 344 218 203 197 195 183 197 201 203 219 231 217 211 215 215 236 235 230 240
260 235 280 349 17 11 360 345 331 323 320 309 311 315 314 314 306 322 340 324 318 341 350 356 352 342 328 348 171 197 209 225 210 208 220 206 235 235 242 242 239 238 236 238
250 258 256 242 326 338 334 325 319 322 318 306 301 297 295 276 264 261 266 281 292 299 302 313 331 338 345 133 219 229 241 247 239 228 219 218 214 252 264 270 297 271 272 265
264 276 277 280 311 307 303 305 307 306 304 299 293 287 285 275 266 258 259 270 274 279 285 296 315 324 320 277 228 242 243 248 254 239 211 226 208 190 140 249 122 205 267 289
293 296 294 291 296 297 297 297 296 290 289 291 291 285 281 280 272 263 260 262 266 267 267 265 265 279 283 271 240 240 253 262 268 259 238 237 236 234 210 184 191 207 220 229
303 293 284 292 301 306 301 299 305 307 302 294 296 290 280 275 273 266 261 262 262 257 248 244 247 263 275 262 249 251 254 239 251 257 255 250 244 246 249 246 220 202 190 193
296 291 278 287 293 297 292 296 301 309 314 305 294 283 280 279 281 278 269 265 261 252 246 245 250 263 276 270 260 259 261 263 260 265 257 248 252 251 251 255 261 255 223 166
293 294 287 281 291 300 301 304 303 313 319 315 311 305 294 288 284 282 277 269 261 260 256 253 258 264 267 273 273 260 249 243 262 267 258 247 244 248 248 249 258 260 257 252
279 282 291 296 298 302 309 308 307 313 316 312 310 308 298 290 285 287 291 282 276 272 257 250 253 259 265 271 270 267 265 223 218 245 245 245 253 260 260 258 261 262 261 251
266 279 287 288 289 292 299 307 308 308 306 306 300 292 292 296 299 302 294 287 272 265 261 252 254 255 253 262 268 267 257 255 243 236 235 241 251 260 262 255 252 255 254 200
264 283 291 294 296 294 297 302 304 306 304 300 298 296 294 290 293 294 292 280 271 268 278 280 252 252 255 264 267 253 248 238 234 231 226 213 233 250 263 268 267 260 254 240
276 284 292 296 296 298 303 306 309 307 303 299 303 313 309 306 300 293 288 282 287 310 305 295 262 258 260 255 259 259 247 238 237 235 232 236 239 244 252 258 260 259 255 255
281 285 291 296 302 305 307 311 313 311 307 299 301 312 312 307 303 298 290 289 324 341 301 245 255 268 270 292 250 255 249 243 239 237 236 239 242 244 250 257 259 257 256 256
293 288 294 298 299 302 306 306 306 309 309 309 313 312 305 298 295 291 294 319 342 360 301 276 283 354 334 290 254 254 252 249 245 241 240 242 245 245 245 250 254 253 255 261
300 294 292 293 292 294 296 299 304 307 307 307 313 314 310 310 308 302 302 340 334 334 300 323 2 344 301 268 261 254 255 255 252 247 251 253 256 253 249 247 249 250 251 255
295 294 296 296 291 284 290 304 310 307 306 298 304 316 312 305 305 312 332 44 1 327 330 22 341 286 270 262 265 259 261 267 276 272 266 262 262 258 250 244 237 234 236 246
301 292 287 285 272 270 285 289 290 294 290 292 305 312 303 308 314 338 351 2 23 325 320 170 221 253 259 282 294 298 299 330 344 325 305 292 287 284 274 260 245 236 223 189
302 286 287 285 293 294 281 281 285 289 299 308 311 317 329 343 345 356 349 1 357 325 316 329 256 239 268 318 346 344 345 28 3 309 323 322 322 324 319 316 260 265 356 4
293 287 269 265 264 275 285 292 298 306 317 324 327 343 352 358 355 359 4 10 13 355 5 8 3 346 343 356 11 8 6 12 1 343 337 334 335 329 322 324 12 36 8 347